Location: Normandy Village
(37.8755°N, 122.2655°W)
Time: 00:20:31
(UTC+00:00)

ATLAS 3B R/B - Pass Details

Date: 10 December 2019
Orbit: 1027 x 1168 km, 63.8° (Epoch: 19 January)

Event Time Altitude Azimuth Distance (km) Brightness Sun altitude
Rises 13:48:07 0° 155° (SSE) 3,830 6.2 -16.4°
Reaches altitude 10° 13:52:36 10° 128° (SE) 2,854 6.1 -15.6°
Maximum altitude 13:55:13 13° 105° (ESE) 2,659 6.1 -15.1°
Drops below altitude 10° 13:57:48 10° 81° (E) 2,836 6.0 -14.6°
Sets 14:02:12 0° 55° (NE) 3,782 6.1 -13.8°
